Wind_Speed
17 20 19 19 19 19 19 17 14 18 21 17 14 17 19 18 21 23 26 30 33 31 29 32 36 42 45 43 47 55 54 47 38 40 38 32 29 30 30 30 30 32 32 30
16 19 19 17 17 16 15 15 17 17 19 14 16 16 16 17 19 17 24 28 25 28 36 36 36 41 44 45 48 51 51 42 43 44 40 36 35 34 34 34 34 34 34 34
17 16 16 17 19 15 15 19 16 16 17 16 17 16 17 16 18 18 21 23 25 25 22 38 37 44 44 48 50 51 51 41 47 44 40 37 37 36 37 36 35 42 40 36
22 19 18 18 17 15 19 13 15 15 16 11 17 18 18 17 17 16 17 16 20 17 6 30 32 41 43 43 43 42 45 46 43 42 42 42 42 40 42 39 39 44 49 42
7 7 8 13 14 15 16 13 14 15 16 17 18 18 17 18 19 19 20 19 18 20 20 14 41 38 34 43 42 45 47 45 46 48 47 45 44 45 41 38 38 35 31 40
5 6 11 14 12 15 13 15 16 16 17 18 17 17 17 17 19 23 20 20 20 21 21 27 21 49 44 47 47 46 44 61 54 57 52 50 48 45 40 40 49 36 35 33
10 12 11 9 11 13 15 18 17 17 17 19 20 20 17 15 14 9 10 11 15 19 23 25 28 25 44 49 50 49 51 43 66 54 52 53 50 50 46 44 34 35 38 39
5 14 15 16 14 12 14 16 18 18 18 18 19 20 19 19 17 18 17 18 15 16 15 19 24 25 31 29 54 53 55 64 65 59 62 59 56 56 57 45 43 49 43 46
7 11 16 19 20 21 19 18 17 18 18 19 19 20 20 18 19 22 21 20 15 15 17 17 20 21 27 26 32 28 38 42 42 50 53 59 64 55 63 52 52 54 54 54
9 13 13 15 17 19 23 24 24 25 25 25 24 25 26 24 22 22 25 27 26 24 19 18 21 23 22 19 20 23 23 23 24 33 35 44 50 59 64 60 59 63 62 62
11 15 17 16 16 16 17 19 20 21 23 24 25 25 25 27 24 24 27 31 30 32 29 27 30 31 29 28 27 26 24 24 25 28 27 27 27 30 32 34 37 41 42 47
15 17 16 17 18 19 18 18 18 18 18 18 19 19 20 22 23 23 23 29 35 38 38 36 35 34 34 36 33 31 30 29 28 29 28 30 29 30 32 33 36 37 39 41
16 18 18 17 17 19 18 19 21 20 19 18 17 18 18 18 20 20 18 19 26 34 35 35 36 35 31 32 34 34 34 33 33 32 32 33 33 33 34 35 37 38 39 41
15 17 18 19 21 16 17 21 20 20 23 24 23 21 21 21 21 22 22 24 25 25 28 31 32 32 34 35 35 34 35 35 35 34 34 35 36 37 39 40 40 41 41 42
14 13 14 16 15 19 18 18 20 21 22 23 23 23 23 23 24 24 25 27 29 31 30 31 34 36 37 37 37 36 37 39 40 41 40 41 41 42 43 44 44 45 45 46
17 18 16 17 22 21 22 24 24 25 25 24 26 28 30 32 34 36 36 37 38 39 40 40 41 41 41 42 42 43 43 42 42 45 45 46 46 47 47 49 50 52 53 53
14 17 19 17 18 25 24 23 27 29 31 33 35 37 39 38 38 41 43 45 45 45 47 51 53 52 52 52 52 52 52 51 51 51 52 53 54 55 55 57 57 58 59 60
16 17 18 19 22 24 26 29 30 32 35 38 41 44 45 47 48 49 50 51 52 53 53 53 55 57 60 61 61 61 61 61 61 61 61 61 61 62 62 63 63 64 65 66
19 19 19 21 24 27 30 34 37 39 39 41 43 44 46 47 49 50 50 51 51 53 54 55 56 58 59 60 62 63 64 65 65 66 66 66 66 65 66 66 66 67 67 68
20 21 22 24 27 29 30 31 34 36 38 40 42 46 49 52 54 55 56 56 56 57 57 57 58 59 60 61 61 62 63 64 66 67 68 69 69 68 68 68 68 68 68 68
16 16 18 20 23 26 28 31 35 38 42 46 49 54 58 61 63 65 65 65 64 62 60 59 59 60 61 62 63 64 65 65 65 65 65 65 65 65 65 65 66 66 67 67
15 18 22 26 29 32 35 37 40 44 48 53 57 61 62 62 62 62 63 63 63 64 63 63 62 60 60 60 61 62 64 65 66 67 68 68 68 68 68 68 69 69 70 70
21 24 26 29 32 34 38 41 46 49 54 57 58 59 59 58 59 61 62 61 61 60 59 59 59 59 59 59 60 60 61 61 61 62 63 65 66 66 67 67 68 68 68 69
23 26 28 31 33 35 39 43 48 52 53 54 55 56 60 60 57 53 48 46 43 42 42 42 43 43 44 46 49 51 53 55 56 56 57 58 59 59 60 61 62 62 63 63
29 32 35 35 36 39 44 47 51 52 53 53 56 57 53 48 43 39 37 36 36 35 36 36 36 36 36 37 37 37 38 39 41 42 43 44 45 47 48 49 50 51 52 53
37 39 39 40 41 44 48 51 53 54 54 56 55 49 42 38 35 34 33 32 32 31 31 32 32 32 33 33 33 34 34 34 35 36 36 37 37 37 38 38 38 39 40 41
42 43 42 42 44 47 50 53 54 55 57 53 46 41 37 35 33 31 30 29 29 29 29 29 29 30 30 30 31 30 31 31 31 30 30 30 30 30 31 31 31 31 32 33
Wind_Direction
189 201 186 192 202 202 211 216 213 218 240 246 252 255 261 265 262 252 253 256 252 255 252 245 239 228 220 219 219 226 233 229 224 232 238 241 241 245 249 250 248 246 246 246
178 187 191 199 208 212 218 220 218 221 242 241 248 254 255 258 265 266 258 261 257 259 249 244 232 219 217 214 221 231 238 223 228 235 235 236 239 242 244 249 250 248 246 246
205 202 198 210 212 217 226 226 229 231 245 254 252 258 258 266 277 274 269 268 262 263 276 209 225 213 212 217 222 229 234 234 235 233 236 236 236 240 245 252 256 256 247 244
204 207 208 228 224 222 239 235 236 239 241 251 257 250 262 260 265 278 272 268 270 250 240 195 221 209 214 218 223 229 230 230 233 237 239 243 243 243 250 253 257 278 237 236
161 198 219 228 228 229 239 233 232 231 229 224 247 251 255 259 255 273 276 273 267 249 249 241 184 214 216 226 224 223 223 234 237 239 241 246 250 253 256 259 262 273 261 244
188 207 217 233 231 233 237 233 230 230 229 229 244 258 261 282 285 273 293 286 274 272 270 251 239 193 212 223 226 228 233 233 228 232 240 244 250 255 258 262 264 250 245 245
223 233 238 230 228 235 231 236 231 232 233 233 237 253 259 267 309 278 271 277 271 265 259 263 263 257 191 198 211 226 227 228 221 234 246 246 250 256 251 249 235 225 227 244
250 238 242 237 239 235 237 239 239 237 238 242 248 257 263 269 276 261 273 274 270 292 278 268 258 251 252 224 217 221 223 226 230 242 242 235 244 254 253 231 223 226 235 240
260 248 245 247 240 242 244 244 246 246 247 253 256 261 269 271 268 260 273 276 271 268 286 276 275 271 254 244 242 246 224 224 225 226 242 239 240 246 237 223 220 227 228 232
246 243 245 245 245 245 246 250 253 257 261 264 268 270 273 274 269 262 273 278 268 265 280 286 288 285 282 282 275 256 254 252 245 245 236 231 234 239 232 228 225 228 233 237
254 248 243 248 250 250 246 245 247 251 253 256 259 262 267 273 277 269 262 262 267 269 274 270 282 291 294 297 297 290 284 277 268 252 251 252 249 252 251 254 254 253 254 254
252 252 251 248 245 249 253 254 256 258 258 259 261 266 272 277 285 286 273 265 265 268 273 276 279 279 279 281 283 284 283 283 283 282 282 283 281 275 269 264 263 263 261 259
251 250 246 241 246 246 252 254 256 256 254 262 269 269 271 273 274 283 279 280 267 268 271 270 273 272 267 265 267 271 272 273 270 269 268 268 268 268 267 264 261 259 257 257
249 255 254 248 242 251 253 253 254 259 259 264 268 269 268 275 275 277 282 277 273 275 278 277 275 272 272 272 269 267 266 266 265 264 263 262 263 263 263 264 263 261 260 259
248 262 264 251 251 254 262 262 260 260 260 262 265 265 268 267 268 270 273 277 277 275 272 273 274 277 277 275 274 272 267 263 260 260 259 260 260 260 260 261 260 260 260 261
255 253 268 262 250 255 256 254 253 256 261 267 273 271 271 272 273 275 277 274 271 271 271 270 267 268 271 269 268 268 264 263 264 264 262 262 262 260 261 262 263 265 265 265
265 266 275 277 262 252 261 268 267 271 275 278 277 277 278 277 278 278 279 278 275 274 272 270 269 267 266 265 265 265 265 264 263 261 260 259 259 260 261 262 263 263 263 264
273 277 272 277 278 276 276 277 279 281 281 281 281 283 282 279 277 278 278 277 276 274 272 271 270 269 268 268 267 266 265 266 267 267 266 265 264 264 265 266 266 266 266 268
277 278 275 275 278 278 276 276 280 283 286 288 289 289 288 287 286 283 281 279 277 276 275 273 272 272 271 270 269 268 268 268 268 268 267 267 267 267 267 267 268 268 268 269
285 288 289 289 288 286 287 288 289 289 289 289 289 289 289 289 289 289 288 287 284 282 279 276 274 272 270 270 269 268 269 269 269 269 269 269 270 270 271 271 272 273 274 274
282 285 286 287 291 294 295 296 297 297 297 295 295 294 293 293 292 291 291 290 289 286 283 280 276 273 271 269 268 268 268 268 268 268 268 268 269 269 270 271 271 272 272 273
302 304 306 306 305 304 302 301 299 298 297 295 294 294 293 292 291 290 288 287 285 283 282 280 279 276 273 270 268 267 266 265 266 266 267 267 268 268 268 269 269 270 270 270
322 316 310 307 304 302 301 298 296 296 297 299 299 298 297 295 293 290 287 287 285 283 281 279 277 275 273 271 269 267 267 266 265 264 264 265 265 265 266 267 267 268 269 270
319 316 314 310 305 302 301 302 305 305 306 304 304 302 300 299 298 296 294 292 290 288 286 284 281 279 276 273 270 268 267 266 266 266 266 266 265 266 266 266 267 267 268 268
333 333 326 320 316 315 314 315 315 314 311 311 309 307 305 303 301 299 297 296 295 294 292 289 286 283 281 278 277 275 273 272 272 271 271 271 271 271 271 271 271 270 271 271
334 332 327 323 321 320 321 321 320 318 318 316 313 311 308 306 303 301 301 301 301 300 298 295 291 288 285 282 280 278 277 276 275 275 274 274 274 274 275 275 275 275 275 274
332 330 327 324 324 324 324 324 322 322 320 317 314 312 310 307 306 304 304 304 304 305 304 302 298 294 290 286 283 280 280 279 277 277 277 277 276 276 277 277 278 278 278 278
Height
5557 5560 5564 5569 5573 5577 5581 5584 5588 5590 5590 5592 5593 5592 5592 5593 5594 5594 5594 5595 5596 5596 5597 5598 5601 5605 5610 5615 5620 5623 5629 5634 5638 5642 5647 5652 5657 5659 5661 5664 5666 5668 5671 5672
5554 5558 5562 5566 5570 5573 5576 5579 5583 5585 5585 5588 5588 5588 5588 5588 5587 5588 5588 5587 5588 5588 5589 5588 5592 5597 5603 5608 5613 5617 5622 5628 5631 5634 5640 5645 5648 5651 5654 5655 5658 5660 5662 5663
5555 5558 5562 5565 5567 5570 5573 5573 5579 5581 5581 5584 5585 5584 5584 5583 5582 5583 5583 5581 5582 5581 5579 5576 5583 5588 5596 5601 5607 5611 5616 5620 5624 5628 5632 5635 5640 5643 5646 5648 5649 5651 5653 5654
5555 5557 5560 5561 5564 5567 5567 5573 5575 5576 5578 5580 5579 5580 5579 5579 5579 5577 5577 5577 5577 5577 5576 5575 5579 5584 5590 5595 5600 5604 5608 5612 5616 5619 5623 5626 5630 5633 5636 5638 5639 5637 5638 5643
5554 5556 5560 5560 5562 5565 5566 5570 5571 5573 5574 5575 5575 5576 5576 5576 5575 5574 5574 5573 5573 5573 5572 5573 5571 5579 5583 5587 5590 5594 5600 5604 5607 5611 5613 5617 5621 5624 5626 5627 5628 5629 5631 5633
5555 5557 5558 5558 5560 5561 5564 5566 5567 5570 5571 5572 5572 5573 5573 5573 5572 5571 5570 5569 5569 5568 5569 5569 5570 5569 5576 5580 5584 5589 5592 5591 5592 5600 5603 5608 5610 5613 5615 5617 5617 5620 5623 5625
5554 5555 5557 5558 5559 5560 5562 5565 5564 5566 5567 5568 5569 5570 5570 5570 5570 5569 5568 5568 5567 5566 5566 5566 5565 5565 5565 5566 5572 5579 5582 5581 5578 5588 5593 5596 5599 5602 5604 5606 5608 5610 5614 5615
5552 5553 5555 5555 5557 5559 5560 5559 5561 5562 5563 5565 5566 5566 5566 5568 5568 5568 5567 5566 5564 5563 5562 5560 5561 5562 5565 5563 5564 5567 5571 5574 5574 5576 5579 5584 5587 5589 5592 5595 5597 5601 5602 5605
5551 5551 5551 5551 5553 5555 5556 5557 5557 5558 5559 5560 5561 5562 5562 5563 5564 5564 5563 5564 5563 5560 5558 5557 5556 5555 5557 5558 5559 5561 5561 5557 5558 5562 5565 5569 5574 5577 5577 5578 5581 5585 5588 5590
5547 5548 5548 5548 5549 5550 5551 5552 5553 5554 5555 5556 5556 5556 5557 5558 5559 5559 5558 5558 5558 5558 5557 5555 5552 5552 5551 5553 5552 5552 5551 5551 5549 5553 5556 5557 5560 5564 5567 5567 5566 5569 5572 5573
5543 5544 5545 5545 5545 5546 5547 5548 5549 5549 5550 5550 5551 5551 5551 5551 5551 5552 5552 5551 5552 5552 5552 5552 5553 5551 5549 5547 5547 5547 5546 5546 5546 5548 5550 5550 5550 5553 5555 5558 5560 5561 5561 5563
5539 5541 5541 5541 5542 5542 5543 5543 5544 5545 5545 5545 5545 5545 5545 5544 5544 5544 5545 5544 5543 5543 5543 5543 5543 5544 5544 5543 5542 5541 5540 5540 5540 5540 5539 5540 5542 5545 5546 5547 5549 5549 5550 5552
5536 5537 5538 5538 5538 5538 5538 5539 5539 5540 5540 5540 5540 5540 5540 5539 5538 5538 5539 5538 5536 5535 5535 5535 5534 5534 5534 5534 5534 5533 5532 5533 5532 5532 5533 5533 5533 5533 5535 5536 5537 5538 5538 5539
5532 5532 5533 5533 5534 5534 5534 5534 5534 5534 5534 5534 5534 5534 5533 5533 5532 5531 5530 5530 5530 5529 5527 5525 5524 5524 5524 5523 5523 5523 5522 5522 5522 5522 5522 5523 5523 5524 5524 5525 5526 5526 5527 5527
5529 5528 5528 5529 5529 5529 5529 5529 5529 5528 5528 5528 5527 5527 5526 5526 5525 5524 5523 5522 5521 5520 5518 5518 5516 5514 5512 5512 5512 5511 5511 5511 5511 5511 5512 5512 5513 5513 5513 5513 5514 5514 5514 5514
5525 5525 5525 5525 5525 5525 5524 5524 5524 5523 5523 5521 5521 5519 5518 5517 5516 5515 5513 5512 5511 5509 5508 5507 5505 5504 5503 5501 5501 5500 5500 5499 5499 5499 5498 5498 5498 5498 5498 5499 5499 5498 5498 5498
5521 5521 5521 5521 5520 5520 5519 5518 5517 5517 5515 5514 5512 5511 5509 5507 5505 5503 5501 5499 5497 5495 5494 5492 5491 5489 5488 5487 5485 5484 5483 5484 5484 5484 5483 5483 5483 5483 5483 5482 5481 5480 5480 5480
5517 5516 5516 5515 5514 5513 5513 5511 5510 5508 5506 5504 5502 5499 5496 5493 5491 5489 5486 5483 5481 5479 5476 5474 5473 5471 5470 5469 5468 5467 5466 5465 5464 5464 5463 5463 5463 5462 5462 5462 5462 5462 5461 5459
5513 5512 5511 5510 5509 5507 5506 5503 5501 5498 5495 5492 5488 5485 5481 5478 5474 5471 5468 5465 5463 5460 5458 5456 5454 5452 5450 5448 5448 5447 5446 5446 5445 5444 5443 5443 5442 5441 5441 5441 5440 5440 5440 5439
5508 5506 5504 5503 5502 5499 5497 5494 5490 5487 5484 5480 5476 5472 5467 5462 5457 5452 5449 5445 5442 5439 5437 5435 5433 5431 5430 5428 5427 5426 5425 5424 5423 5422 5422 5421 5421 5420 5419 5418 5418 5417 5416 5415
5502 5501 5499 5498 5495 5492 5489 5485 5481 5476 5471 5466 5460 5454 5448 5441 5436 5430 5426 5422 5417 5415 5413 5411 5409 5408 5407 5406 5405 5404 5403 5402 5401 5401 5401 5400 5400 5399 5398 5397 5397 5396 5395 5394
5499 5497 5494 5491 5488 5483 5479 5474 5469 5463 5457 5450 5443 5436 5429 5422 5416 5410 5405 5400 5396 5392 5389 5386 5384 5383 5382 5381 5381 5380 5380 5379 5379 5379 5379 5378 5378 5378 5377 5376 5376 5375 5374 5373
5494 5491 5487 5483 5479 5474 5469 5463 5457 5450 5443 5434 5425 5417 5409 5402 5395 5389 5384 5377 5373 5369 5366 5363 5361 5359 5358 5357 5357 5357 5357 5357 5357 5357 5356 5356 5356 5355 5354 5354 5353 5352 5351 5350
5488 5484 5480 5474 5469 5464 5458 5451 5444 5435 5426 5417 5407 5399 5390 5381 5374 5366 5361 5356 5353 5349 5346 5343 5341 5339 5337 5336 5335 5335 5335 5334 5335 5335 5334 5334 5334 5334 5334 5333 5332 5331 5330 5329
5480 5475 5470 5464 5458 5452 5444 5437 5428 5419 5409 5400 5390 5380 5371 5363 5357 5352 5347 5343 5339 5336 5333 5329 5327 5325 5323 5321 5320 5319 5318 5317 5317 5316 5316 5315 5315 5314 5314 5313 5312 5311 5310 5309
5471 5466 5459 5453 5446 5439 5431 5422 5412 5402 5392 5382 5371 5362 5356 5350 5345 5341 5336 5333 5329 5325 5322 5318 5315 5313 5310 5309 5307 5306 5305 5304 5303 5302 5301 5300 5300 5299 5298 5297 5296 5295 5293 5292
5463 5456 5449 5442 5435 5427 5419 5409 5399 5388 5377 5366 5357 5350 5344 5339 5335 5331 5327 5324 5320 5316 5313 5309 5305 5302 5300 5298 5296 5294 5293 5292 5291 5290 5289 5288 5287 5286 5285 5284 5283 5282 5280 5279